カタログに戻る

USA 470

運用中軍事VLEO
NORAD 62539·PAYLOAD·🇺🇸 United States

打ち上げ Jan 10, 2025 から Vandenberg Space Force Base

Loading…

次のパス (今後24時間)

TLE

古いSource: Mike McCants

元期: Aug 21, 2026, 19:53 UTC

1 62539U 25005H   26233.82916342 0.00000000  00000-0  00000-0 0    01
2 62539  70.0194 237.3194 0002000 176.2445 183.7555 14.96713687    04

AllMySatでUSA 470をリアルタイム追跡

Download on the App Store